Simultaneous Nadir Overpasses (SNOs) Predictions

Prediction of SNOs between METOP-C and LANDSAT-8 Satellite Orbit:

Table of predicted SNOs for the next 14.0 days since TLE Epoch: 6/20/2020
Index Date (METOP-C) Time (METOP-C) Lat,Lon (METOP-C) SZA (METOP-C ) Date (LANDSAT-8) Time (LANDSAT-8) Lat,Lon (LANDSAT-8) SZA (LANDSAT-8 ) Distance(km) Time Diff (sec)
1 06/21/2020 05:27:11 -81.12, -41.98 120.20 06/21/2020 05:27:30 -81.12, -41.88 120.19 1.60 19
2 06/21/2020 06:17:49 81.15, 126.08 59.89 06/21/2020 06:16:55 81.15, 126.22 59.89 2.47 54
3 06/24/2020 01:01:32 -81.14, 24.96 120.12 06/24/2020 01:01:46 -81.14, 24.83 120.13 2.08 14
4 06/24/2020 01:52:11 81.15,-167.36 59.93 06/24/2020 01:51:12 81.14,-167.45 59.89 1.63 59
5 06/26/2020 20:35:55 -81.13, 91.12 120.08 06/26/2020 20:36:03 -81.13, 91.17 120.07 0.82 8
6 06/26/2020 21:26:33 81.16,-100.81 60.02 06/26/2020 21:25:28 81.16,-100.77 60.00 0.91 65
7 06/29/2020 16:10:15 -81.15, 158.02 119.89 06/29/2020 16:10:18 -81.15, 157.84 119.91 3.05 3
8 06/29/2020 17:00:55 81.15, -34.66 60.12 06/29/2020 16:59:44 81.15, -34.48 60.11 3.10 71
9 07/02/2020 10:53:58 81.12, 56.23 60.18 07/02/2020 10:55:09 81.11, 56.10 60.20 2.16 71




NCC Satellite Simultaneous Nadir Overpasses (SNOs) Prediction Service
